Starlink 6137

operational
NORAD ID: 57156 Int'l Des: 2023-090 Owner: SPXS Country: US Constellation: starlink
LEOCIRCULAR

Starlink 6137について

説明を読み込み中...

リアルタイム位置

3D地球を読み込み中...

次回通過

高度履歴

Altitude vs Time

uPlot chart will show altitude changes over time

軌道要素

1 57156U 23090BH 25260.03110958 .00000194 00000-0 29418-4 0 9992
2 57156 43.0049 124.9774 0001127 268.3976 91.6738 15.02533456124445
Epoch: Sep 17, 2025 • Age: 56 hours

現在のステータス

高度 563.0 km
速度 7.59 km/s
衛星直下点 42.98°N, 62.76°E
打ち上げ日 Jun 23, 2023
運用期間 2.2 years
タイプ internet

技術仕様

分類 Payload
質量 305.00 kg
乾燥質量 290.00 kg
総質量 305.00 kg
長さ 0.20 m
直径 2.80 m
スパン 9.00 m
形状 Box + pan
製造者 SPXS
バスタイプ Starlink
フェーズステータス In Orbit
所有者/国 SPXS/US

大規模コンステレーション

Loading constellations...